Location: Châteauvieux
(47.2310°N, 1.3828°E)
Time: 00:05:59
(UTC+00:00)

CZ-2C R/B - Pass Details

Date: 15 May 2026
Orbit: 630 x 690 km, 98.1° (Epoch: 9 June)

Event Time Altitude Azimuth Distance (km) Brightness Sun altitude
Rises 22:27:39 0° 20° (NNE) 2,963 7.8 -21.1°
Reaches altitude 10° 22:29:58 10° 28° (NNE) 2,057 6.8 -21.3°
Maximum altitude 22:34:12 40° 98° (E) 970 4.3 -21.5°
Enters shadow 22:34:20 40° 103° (ESE) 972 4.3 -21.5°
